CAPE
0 0 0 0 0 0 0 0 0 0 0 0 0 0 0 0 0 0 0 0 0 0
0 0 0 0 0 0 0 0 0 0 0 0 0 0 0 0 0 0 0 0 0 0
0 0 0 0 0 0 0 0 0 0 0 0 0 0 0 0 0 0 0 0 0 0
0 0 0 0 0 0 0 0 0 0 0 0 0 0 0 0 0 0 0 0 0 0
0 0 0 0 0 0 0 0 0 0 0 0 0 0 0 0 0 0 0 0 0 0
0 0 0 0 0 0 0 0 0 0 0 0 0 0 0 0 0 0 0 0 0 0
0 0 0 0 0 0 0 0 0 0 0 0 0 0 0 0 0 0 0 0 0 0
0 0 0 0 0 0 0 0 0 0 0 0 0 0 0 0 0 0 0 0 0 0
0 0 0 0 0 1 0 0 0 0 0 0 0 0 3 7 0 0 0 0 0 0
0 0 1 1 1 0 0 0 0 0 0 0 0 0 6 12 0 0 0 0 0 0
1 1 1 1 0 0 0 0 0 0 0 0 0 2 6 8 0 0 0 0 0 0
0 0 0 0 0 0 0 0 0 0 0 0 0 0 5 6 0 0 0 0 0 0
0 0 0 0 0 0 0 0 0 0 0 0 0 0 6 8 0 0 0 0 0 2
0 0 0 0 0 0 0 0 0 0 0 0 0 0 6 11 3 0 0 0 0 0
CIN
-0 -0 -0 -0 -0 -0 -0 -0 -0 -0 -0 -0 -0 -0 -0 -0 -0 -0 -0 -0 -0 -0
-0 -0 -0 -0 -0 -0 -0 -0 -0 -0 -0 -0 -0 -0 -0 -0 -0 -0 -0 -0 -0 -0
-0 -0 -0 -0 -0 -0 -0 -0 -0 -0 -0 -0 -0 -0 -0 -0 -0 -0 -0 -0 -0 -0
-0 -0 -0 -0 -0 -0 -0 -0 -0 -0 -0 -0 -0 -0 -0 -0 -0 -0 -0 -0 -0 -0
-0 -0 -0 -0 -0 -0 -0 -0 -0 -0 -0 -0 -0 -0 -0 -0 -0 -0 -0 -0 -0 -0
-0 -0 -0 -0 -0 -0 -0 -0 -0 -0 -0 -0 -0 -0 -0 -0 -0 -0 -0 -0 -0 -0
-0 -0 -0 -0 -0 -0 -0 -0 -0 -0 -0 -0 -0 -0 -0 -0 -0 -0 -0 -0 -0 -0
-0 -0 -0 -0 -0 -0 -0 -0 -0 -0 -0 -0 -0 -0 -0 -0 -0 -0 -0 -0 -0 -0
-0 -0 -0 -0 -0 -0 -0 -0 -0 -0 -0 -0 -0 -0 -0 -0 -0 -0 -0 -0 -0 -0
-0 -0 -0 -0 -0 -0 -0 -0 -0 -0 -0 -0 -0 -0 -0 -0 -9 -0 -0 -0 -0 -0
-0 -0 -0 -0 -0 -0 -0 -0 -0 -0 -0 -0 -0 -0 -0 -0 -6 -0 -0 -0 -0 -0
-0 -0 -0 -0 -0 -0 -0 -0 -0 -0 -0 -0 -0 -0 -0 -1 -0 -0 -0 -0 -0 -0
-0 -0 -0 -0 -0 -0 -0 -0 -0 -0 -0 -0 -0 -0 -0 -1 -7 -0 -0 -0 -0 -0
-0 -0 -0 -0 -0 -0 -0 -0 -0 -0 -0 -0 -0 -0 -0 -0 -4 -0 -4 -0 -0 -0
Wind_Speed
12 8 7 7 7 5 4 4 5 5 4 4 3 2 2 1 1 2 0 2 2 2
9 10 9 9 7 4 5 5 5 5 4 3 2 2 2 1 1 1 2 3 3 3
9 10 9 8 8 7 6 6 6 5 4 2 2 1 1 1 1 2 2 3 3 3
9 9 8 8 8 8 7 6 5 4 3 1 1 1 1 2 4 3 3 3 4 5
9 8 7 7 6 6 6 6 6 5 3 2 1 1 2 3 4 4 4 4 5 6
10 9 7 6 5 5 5 5 4 4 2 0 2 3 4 5 5 4 5 5 6 8
9 8 8 6 6 6 5 4 4 2 1 2 2 4 4 5 5 5 6 7 8 9
8 8 8 7 6 5 4 3 2 1 2 3 3 3 4 7 7 7 7 8 9 9
8 8 7 6 5 4 3 2 0 1 2 3 3 6 9 10 3 4 5 7 8 8
7 7 6 4 3 3 2 1 1 1 3 3 3 7 10 12 1 3 6 8 9 9
5 6 5 3 3 2 1 1 2 3 4 3 4 8 10 11 0 5 8 9 9 9
5 5 4 3 2 1 0 2 3 4 3 3 4 8 9 10 4 4 8 9 8 9
4 3 2 1 1 1 1 2 3 4 3 6 4 8 11 10 1 5 7 7 8 15
2 1 2 2 1 2 2 1 2 3 3 4 4 5 11 12 3 4 4 6 8 8
Wind_Direction
143 141 141 143 145 143 142 143 145 126 117 109 97 89 74 74 55 111 339 267 252 271
131 135 139 133 135 132 124 130 121 117 113 97 84 67 55 41 348 352 287 274 266 253
128 127 127 125 126 125 119 109 120 115 105 84 57 33 22 326 281 280 282 267 270 273
121 120 121 124 129 131 124 123 120 121 116 104 40 336 296 283 274 259 272 287 290 285
112 111 108 109 113 116 121 126 132 126 118 98 5 305 300 293 291 281 291 288 285 272
114 111 108 110 113 115 122 118 107 113 123 132 295 282 262 253 265 273 264 261 258 260
109 112 108 100 90 83 74 82 69 52 323 259 263 269 268 261 252 253 262 254 250 254
101 99 96 98 101 101 96 94 87 12 304 298 280 263 232 251 250 246 255 258 258 261
113 108 109 112 110 108 101 79 235 248 277 289 294 295 290 283 226 233 261 273 273 273
121 116 116 114 125 124 116 88 322 302 277 281 285 300 292 299 202 251 265 273 285 295
110 107 104 113 105 88 56 358 312 277 267 289 306 304 304 304 295 271 272 276 286 288
92 104 113 113 103 86 4 314 276 273 291 289 288 314 317 301 252 259 283 294 295 288
99 108 123 145 175 172 198 248 281 304 299 305 318 322 308 319 251 279 296 307 291 311
92 127 200 194 203 208 226 309 289 299 307 295 285 289 320 319 321 276 311 309 322 311